[TLELIST] Archives

 

Current TLEs

June 11th 2008 PDT

HST 1 20580U 90037B 08161.96014833 +.00000261 +00000-0 +73009-5 0 01573 2 20580 028.4686 010.3606 0003517 305.8321 054.1940 15.00384671793899 ISS (ZARYA) 1 25544U 98067A 08162.26318523 -.00000157 00000-0 30927-5 0 6387 2 25544 051.6408 052.0866 0005617 323.7185 132.7478 15.76735819547438 CXO 1 25867U 99040B 08162.25000000 +.00000307 +00000-0 +10000-3 0 02081 2 25867 063.7377 080.6146 6822819 278.9859 353.6967 00.37805746003600 ____________________________________________________________________ These 2-Line ...Continue Reading

Current TLEs

June 10th 2008 PDT

HST 1 20580U 90037B 08161.89362961 .00000255 00000-0 68281-5 0 1549 2 20580 028.4686 010.7946 0003524 305.1106 054.9154 15.00384611793880 ISS (ZARYA) 1 25544U 98067A 08162.26318523 -.00000157 00000-0 30927-5 0 6387 2 25544 051.6408 052.0866 0005617 323.7185 132.7478 15.76735819547438 CXO 1 25867U 99040B 08162.25000000 +.00000307 +00000-0 +10000-3 0 02081 2 25867 063.7377 080.6146 6822819 278.9859 353.6967 00.37805746003600 ____________________________________________________________________ These 2-Line ...Continue Reading

Current TLEs

June 9th 2008 PDT

HST 1 20580U 90037B 08159.96458285 +.00000306 +00000-0 +10832-4 0 01780 2 20580 028.4683 023.3738 0003528 284.4510 075.5687 15.00384501793594 ISS (ZARYA) 1 25544U 98067A 08161.31384457 -.00000637 00000-0 17175-6 0 6329 2 25544 051.6415 056.9865 0005549 313.7543 150.3582 15.76744885547287 CXO 1 25867U 99040B 08159.62500000 +.00000295 +00000-0 +10000-3 0 02078 2 25867 063.7321 080.7062 6817343 279.0152 356.2901 00.37803594003595 ____________________________________________________________________ These 2-Line ...Continue Reading

Current TLEs

June 8th 2008 PDT

HST 1 20580U 90037B 08160.16413949 .00000305 00000-0 10766-4 0 1530 2 20580 028.4682 022.0726 0003559 287.8962 072.1235 15.00384504793627 ISS (ZARYA) 1 25544U 98067A 08160.47070602 .00004996 00000-0 34500-4 0 6273 2 25544 051.6409 061.3309 0005524 320.2340 034.7621 15.76711678547142 CXO 1 25867U 99040B 08159.62500000 +.00000295 +00000-0 +10000-3 0 02078 2 25867 063.7321 080.7062 6817343 279.0152 356.2901 00.37803594003595 ____________________________________________________________________ These 2-Line ...Continue Reading

Current TLEs

June 7th 2008 PDT

HST 1 20580U 90037B 08158.90028263 .00000272 00000-0 81941-5 0 1526 2 20580 028.4683 030.3204 0003680 272.7154 087.3014 15.00383877793436 ISS (ZARYA) 1 25544U 98067A 08159.34884612 .00000029 00000-0 42304-5 0 6209 2 25544 051.6384 067.1120 0005643 312.2684 150.5276 15.76733454546972 CXO 1 25867U 99040B 08156.95833333 +.00000300 +00000-0 +10000-3 0 02065 2 25867 063.7286 080.7776 6809184 279.0829 353.1942 00.37795398003584 ____________________________________________________________________ These 2-Line ...Continue Reading

Current TLEs

June 6th 2008 PDT

HST 1 20580U 90037B 08157.76946245 .00000275 00000-0 83645-5 0 1513 2 20580 028.4684 037.7000 0003854 258.7276 101.2876 15.00383659793265 ISS (ZARYA) 1 25544U 98067A 08158.33416863 -.00007633 00000-0 -42532-4 0 6141 2 25544 051.6389 072.3451 0005602 304.9561 154.3623 15.76710348546817 CXO 1 25867U 99040B 08156.95833333 +.00000300 +00000-0 +10000-3 0 02065 2 25867 063.7286 080.7776 6809184 279.0829 353.1942 00.37795398003584 ____________________________________________________________________ These 2-Line ...Continue Reading

Current TLEs

June 5th 2008 PDT

HST 1 20580U 90037B 08155.97345485 +.00000281 +00000-0 +88943-5 0 01628 2 20580 028.4683 049.4135 0003922 240.5943 119.4260 15.00383201792999 ISS (ZARYA) 1 25544U 98067A 08157.38441170 .00009075 00000-0 59300-4 0 6077 2 25544 051.6375 077.2401 0005651 298.8484 165.8262 15.76722265546660 CXO 1 25867U 99040B 08156.95833333 +.00000300 +00000-0 +10000-3 0 02065 2 25867 063.7286 080.7776 6809184 279.0829 353.1942 00.37795398003584 ____________________________________________________________________ These 2-Line ...Continue Reading

Current TLEs

June 4th 2008 PDT

HST 1 20580U 90037B 08156.10649230 .00000298 00000-0 10157-4 0 1505 2 20580 028.4683 048.5452 0003877 241.5995 118.4206 15.00383369793016 ISS (ZARYA) 1 25544U 98067A 08155.41978245 .00024371 00000-0 15208-3 0 5979 2 25544 051.6399 087.3640 0005391 290.2679 175.1850 15.76736537546356 CXO 1 25867U 99040B 08154.33333333 +.00000410 +00000-0 +10000-3 0 02051 2 25867 063.7125 080.8523 6807249 279.1481 355.7516 00.37802452003576 ____________________________________________________________________ These 2-Line ...Continue Reading

Current TLEs

June 3rd 2008 PDT

HST 1 20580U 90037B 08154.90915383 .00000291 00000-0 96455-5 0 1493 2 20580 028.4682 056.3547 0003967 229.7051 130.3191 15.00382971792831 ISS (ZARYA) 1 25544U 98067A 08155.16419272 .00012767 00000-0 81948-4 0 5949 2 25544 051.6372 088.6850 0005551 297.2214 156.3867 15.76667117546316 CXO 1 25867U 99040B 08154.33333333 +.00000410 +00000-0 +10000-3 0 02051 2 25867 063.7125 080.8523 6807249 279.1481 355.7516 00.37802452003576 ____________________________________________________________________ These 2-Line ...Continue Reading

Current TLEs

June 2nd 2008 PDT

HST 1 20580U 90037B 08152.91358989 +.00000306 +00000-0 +10840-4 0 01596 2 20580 028.4679 069.3690 0003967 209.7724 150.2633 15.00382418792530 ISS (ZARYA) 1 25544U 98067A 08154.15662503 .00012091 00000-0 77928-4 0 5868 2 25544 051.6372 093.8796 0005412 291.7396 199.0904 15.76637552546157 CXO 1 25867U 99040B 08151.66666667 +.00000540 +00000-0 +10000-3 0 02046 2 25867 063.6891 080.9674 6805844 279.1433 352.7644 00.37809652003566 ____________________________________________________________________ These 2-Line ...Continue Reading
  • This mailing list is a public mailing list - anyone may join or leave, at any time.
  • This mailing list is announce-only.

International Space Station (ISS) / Hubble Space Telescope (HST) / Chandra X-Ray Observatory Orbital Data via EMAIL

Privacy Policy:

Private list